Year,Month,Day,Hour,Minute,Value (Times are PST for temperature in C)
2009,09,22,00,00,14.60
2009,09,22,00,01,14.50
2009,09,22,00,02,14.50
2009,09,22,00,03,14.40
2009,09,22,00,04,14.40
2009,09,22,00,05,14.30
2009,09,22,00,06,14.30
2009,09,22,00,07,14.20
2009,09,22,00,08,14.20
2009,09,22,00,09,14.20
2009,09,22,00,10,14.20
2009,09,22,00,11,14.20
2009,09,22,00,12,14.20
2009,09,22,00,13,14.20
2009,09,22,00,14,14.20
2009,09,22,00,15,14.20
2009,09,22,00,16,14.20
2009,09,22,00,17,14.20
2009,09,22,00,18,14.20
2009,09,22,00,19,14.20
2009,09,22,00,20,14.20
2009,09,22,00,21,14.20
2009,09,22,00,22,14.20
2009,09,22,00,23,14.30
2009,09,22,00,24,14.40
2009,09,22,00,25,14.40
2009,09,22,00,26,14.40
2009,09,22,00,27,14.40
2009,09,22,00,28,14.40
2009,09,22,00,29,14.30
2009,09,22,00,30,14.30
2009,09,22,00,31,14.30
2009,09,22,00,32,14.30
2009,09,22,00,33,14.30
2009,09,22,00,34,14.30
2009,09,22,00,35,14.30
2009,09,22,00,36,14.30
2009,09,22,00,37,14.40
2009,09,22,00,38,14.40
2009,09,22,00,39,14.40
2009,09,22,00,40,14.40
2009,09,22,00,41,14.40
2009,09,22,00,42,14.50
2009,09,22,00,43,14.50
2009,09,22,00,44,14.50
2009,09,22,00,45,14.50
2009,09,22,00,46,14.60
2009,09,22,00,47,14.60
2009,09,22,00,48,14.60
2009,09,22,00,49,14.60
2009,09,22,00,50,14.60
2009,09,22,00,51,14.60
2009,09,22,00,52,14.60
2009,09,22,00,53,14.50
2009,09,22,00,54,14.50
2009,09,22,00,55,14.50
2009,09,22,00,56,14.40
2009,09,22,00,57,14.40
2009,09,22,00,58,14.40
2009,09,22,00,59,14.40
2009,09,22,01,00,14.40
2009,09,22,01,01,14.40
2009,09,22,01,02,14.40
2009,09,22,01,03,14.40
2009,09,22,01,04,14.40
2009,09,22,01,05,14.40
2009,09,22,01,06,14.40
2009,09,22,01,07,14.30
2009,09,22,01,08,14.30
2009,09,22,01,09,14.20
2009,09,22,01,10,14.20
2009,09,22,01,11,14.20
2009,09,22,01,12,14.20
2009,09,22,01,13,14.20
2009,09,22,01,14,14.20
2009,09,22,01,15,14.20
2009,09,22,01,16,14.20
2009,09,22,01,17,14.20
2009,09,22,01,18,14.10
2009,09,22,01,19,14.10
2009,09,22,01,20,14.10
2009,09,22,01,21,14.00
2009,09,22,01,22,14.00
2009,09,22,01,23,14.00
2009,09,22,01,24,14.00
2009,09,22,01,25,14.00
2009,09,22,01,26,13.90
2009,09,22,01,27,13.90
2009,09,22,01,28,13.90
2009,09,22,01,29,13.80
2009,09,22,01,30,13.80
2009,09,22,01,31,13.80
2009,09,22,01,32,13.70
2009,09,22,01,33,13.70
2009,09,22,01,34,13.70
2009,09,22,01,35,13.70
2009,09,22,01,36,13.70
2009,09,22,01,37,13.70
2009,09,22,01,38,13.70
2009,09,22,01,39,13.70
2009,09,22,01,40,13.70
2009,09,22,01,41,13.70
2009,09,22,01,42,13.70
2009,09,22,01,43,13.70
2009,09,22,01,44,13.70
2009,09,22,01,45,13.70
2009,09,22,01,46,13.70
2009,09,22,01,47,13.70
2009,09,22,01,48,13.70
2009,09,22,01,49,13.70
2009,09,22,01,50,13.60
2009,09,22,01,51,13.60
2009,09,22,01,52,13.60
2009,09,22,01,53,13.60
2009,09,22,01,54,13.50
2009,09,22,01,55,13.50
2009,09,22,01,56,13.50
2009,09,22,01,57,13.40
2009,09,22,01,58,13.40
2009,09,22,01,59,13.40
2009,09,22,02,00,13.30
2009,09,22,02,01,13.30
2009,09,22,02,02,13.30
2009,09,22,02,03,13.30
2009,09,22,02,04,13.30
2009,09,22,02,05,13.30
2009,09,22,02,06,13.30
2009,09,22,02,07,13.20
2009,09,22,02,08,13.20
2009,09,22,02,09,13.20
2009,09,22,02,10,13.20
2009,09,22,02,11,13.20
2009,09,22,02,12,13.20
2009,09,22,02,13,13.10
2009,09,22,02,14,13.10
2009,09,22,02,15,13.10
2009,09,22,02,16,13.10
2009,09,22,02,17,13.10
2009,09,22,02,18,13.00
2009,09,22,02,19,13.00
2009,09,22,02,20,12.90
2009,09,22,02,21,12.90
2009,09,22,02,22,12.90
2009,09,22,02,23,12.90
2009,09,22,02,24,12.90
2009,09,22,02,25,12.90
2009,09,22,02,26,12.90
2009,09,22,02,27,12.90
2009,09,22,02,28,12.90
2009,09,22,02,29,13.00
2009,09,22,02,30,13.00
2009,09,22,02,31,13.10
2009,09,22,02,32,13.20
2009,09,22,02,33,13.30
2009,09,22,02,34,13.30
2009,09,22,02,35,13.30
2009,09,22,02,36,13.50
2009,09,22,02,37,13.50
2009,09,22,02,38,13.60
2009,09,22,02,39,13.60
2009,09,22,02,40,13.70
2009,09,22,02,41,13.70
2009,09,22,02,42,13.70
2009,09,22,02,43,13.70
2009,09,22,02,44,13.80
2009,09,22,02,45,13.90
2009,09,22,02,46,13.90
2009,09,22,02,47,14.00
2009,09,22,02,48,14.00
2009,09,22,02,49,14.00
2009,09,22,02,50,14.00
2009,09,22,02,51,14.00
2009,09,22,02,52,14.00
2009,09,22,02,53,14.10
2009,09,22,02,54,14.10
2009,09,22,02,55,14.10
2009,09,22,02,56,14.10
2009,09,22,02,57,14.00
2009,09,22,02,58,14.00
2009,09,22,02,59,14.00
2009,09,22,03,00,13.90
2009,09,22,03,01,13.90
2009,09,22,03,02,13.90
2009,09,22,03,03,13.80
2009,09,22,03,04,13.80
2009,09,22,03,05,13.80
2009,09,22,03,06,13.80
2009,09,22,03,07,13.80
2009,09,22,03,08,13.80
2009,09,22,03,09,13.80
2009,09,22,03,10,13.80
2009,09,22,03,11,13.80
2009,09,22,03,12,13.90
2009,09,22,03,13,13.90
2009,09,22,03,14,14.00
2009,09,22,03,15,14.00
2009,09,22,03,16,14.10
2009,09,22,03,17,14.20
2009,09,22,03,18,14.20
2009,09,22,03,19,14.30
2009,09,22,03,20,14.30
2009,09,22,03,21,14.40
2009,09,22,03,22,14.40
2009,09,22,03,23,14.40
2009,09,22,03,24,14.40
2009,09,22,03,25,14.40
2009,09,22,03,26,14.40
2009,09,22,03,27,14.40
2009,09,22,03,28,14.30
2009,09,22,03,29,14.30
2009,09,22,03,30,14.30
2009,09,22,03,31,14.20
2009,09,22,03,32,14.20
2009,09,22,03,33,14.10
2009,09,22,03,34,14.10
2009,09,22,03,35,14.10
2009,09,22,03,36,14.00
2009,09,22,03,37,14.00
2009,09,22,03,38,13.90
2009,09,22,03,39,13.80
2009,09,22,03,40,13.80
2009,09,22,03,41,13.70
2009,09,22,03,42,13.70
2009,09,22,03,43,13.60
2009,09,22,03,44,13.60
2009,09,22,03,45,13.60
2009,09,22,03,46,13.60
2009,09,22,03,47,13.50
2009,09,22,03,48,13.50
2009,09,22,03,49,13.50
2009,09,22,03,50,13.40
2009,09,22,03,51,13.40
2009,09,22,03,52,13.40
2009,09,22,03,53,13.30
2009,09,22,03,54,13.30
2009,09,22,03,55,13.30
2009,09,22,03,56,13.30
2009,09,22,03,57,13.30
2009,09,22,03,58,13.30
2009,09,22,03,59,13.20
2009,09,22,04,00,13.20
2009,09,22,04,01,13.20
2009,09,22,04,02,13.20
2009,09,22,04,03,13.10
2009,09,22,04,04,13.00
2009,09,22,04,05,13.00
2009,09,22,04,06,12.90
2009,09,22,04,07,12.90
2009,09,22,04,08,12.80
2009,09,22,04,09,12.80
2009,09,22,04,10,12.80
2009,09,22,04,11,12.70
2009,09,22,04,12,12.70
2009,09,22,04,13,12.60
2009,09,22,04,14,12.60
2009,09,22,04,15,12.50
2009,09,22,04,16,12.50
2009,09,22,04,17,12.50
2009,09,22,04,18,12.50
2009,09,22,04,19,12.50
2009,09,22,04,20,12.50
2009,09,22,04,21,12.50
2009,09,22,04,22,12.40
2009,09,22,04,23,12.40
2009,09,22,04,24,12.40
2009,09,22,04,25,12.40
2009,09,22,04,26,12.40
2009,09,22,04,27,12.40
2009,09,22,04,28,12.30
2009,09,22,04,29,12.30
2009,09,22,04,30,12.30
2009,09,22,04,31,12.30
2009,09,22,04,32,12.30
2009,09,22,04,33,12.30
2009,09,22,04,34,12.30
2009,09,22,04,35,12.30
2009,09,22,04,36,12.30
2009,09,22,04,37,12.20
2009,09,22,04,38,12.20
2009,09,22,04,39,12.20
2009,09,22,04,40,12.20
2009,09,22,04,41,12.20
2009,09,22,04,42,12.20
2009,09,22,04,43,12.20
2009,09,22,04,44,12.20
2009,09,22,04,45,12.20
2009,09,22,04,46,12.10
2009,09,22,04,47,12.10
2009,09,22,04,48,12.10
2009,09,22,04,49,12.10
2009,09,22,04,50,12.10
2009,09,22,04,51,12.00
2009,09,22,04,52,12.00
2009,09,22,04,53,12.00
2009,09,22,04,54,12.00
2009,09,22,04,55,12.00
2009,09,22,04,56,11.90
2009,09,22,04,57,11.90
2009,09,22,04,58,11.90
2009,09,22,04,59,11.90
2009,09,22,05,00,11.90
2009,09,22,05,01,11.80
2009,09,22,05,02,11.80
2009,09,22,05,03,11.80
2009,09,22,05,04,11.80
2009,09,22,05,05,11.80
2009,09,22,05,06,11.80
2009,09,22,05,07,11.80
2009,09,22,05,08,11.80
2009,09,22,05,09,11.80
2009,09,22,05,10,11.80
2009,09,22,05,11,11.80
2009,09,22,05,12,11.70
2009,09,22,05,13,11.70
2009,09,22,05,14,11.70
2009,09,22,05,15,11.70
2009,09,22,05,16,11.70
2009,09,22,05,17,11.70
2009,09,22,05,18,11.70
2009,09,22,05,19,11.70
2009,09,22,05,20,11.60
2009,09,22,05,21,11.60
2009,09,22,05,22,11.60
2009,09,22,05,23,11.60
2009,09,22,05,24,11.60
2009,09,22,05,25,11.60
2009,09,22,05,26,11.60
2009,09,22,05,27,11.60
2009,09,22,05,28,11.60
2009,09,22,05,29,11.60
2009,09,22,05,30,11.60
2009,09,22,05,31,11.60
2009,09,22,05,32,11.60
2009,09,22,05,33,11.60
2009,09,22,05,34,11.60
2009,09,22,05,35,11.60
2009,09,22,05,36,11.60
2009,09,22,05,37,11.60
2009,09,22,05,38,11.60
2009,09,22,05,39,11.60
2009,09,22,05,40,11.60
2009,09,22,05,41,11.50
2009,09,22,05,42,11.40
2009,09,22,05,43,11.50
2009,09,22,05,44,11.60
2009,09,22,05,45,11.60
2009,09,22,05,46,11.60
2009,09,22,05,47,11.70
2009,09,22,05,48,11.70
2009,09,22,05,49,11.80
2009,09,22,05,50,11.80
2009,09,22,05,51,11.80
2009,09,22,05,52,11.80
2009,09,22,05,53,11.80
2009,09,22,05,54,11.80
2009,09,22,05,55,11.80
2009,09,22,05,56,11.80
2009,09,22,05,57,11.80
2009,09,22,05,58,11.80
2009,09,22,05,59,11.90
2009,09,22,06,00,11.90
2009,09,22,06,01,11.90
2009,09,22,06,02,11.90
2009,09,22,06,03,11.90
2009,09,22,06,04,11.90
2009,09,22,06,05,12.00
2009,09,22,06,06,12.00
2009,09,22,06,07,12.00
2009,09,22,06,08,12.00
2009,09,22,06,09,12.00
2009,09,22,06,10,12.00
2009,09,22,06,11,12.00
2009,09,22,06,12,12.00
2009,09,22,06,13,12.00
2009,09,22,06,14,12.00
2009,09,22,06,15,12.00
2009,09,22,06,16,11.90
2009,09,22,06,17,11.90
2009,09,22,06,18,11.90
2009,09,22,06,19,11.90
2009,09,22,06,20,11.90
2009,09,22,06,21,11.90
2009,09,22,06,22,11.90
2009,09,22,06,23,11.80
2009,09,22,06,24,11.90
2009,09,22,06,25,11.90
2009,09,22,06,26,11.90
2009,09,22,06,27,11.90
2009,09,22,06,28,11.90
2009,09,22,06,29,11.90
2009,09,22,06,30,11.90
2009,09,22,06,31,11.90
2009,09,22,06,32,11.90
2009,09,22,06,33,11.90
2009,09,22,06,34,11.90
2009,09,22,06,35,11.90
2009,09,22,06,36,11.80
2009,09,22,06,37,11.80
2009,09,22,06,38,11.80
2009,09,22,06,39,11.80
2009,09,22,06,40,11.80
2009,09,22,06,41,11.80
2009,09,22,06,42,11.80
2009,09,22,06,43,11.80
2009,09,22,06,44,11.80
2009,09,22,06,45,11.80
2009,09,22,06,46,11.80
2009,09,22,06,47,11.80
2009,09,22,06,48,11.80
2009,09,22,06,49,11.80
2009,09,22,06,50,11.80
2009,09,22,06,51,11.80
2009,09,22,06,52,11.80
2009,09,22,06,53,11.80
2009,09,22,06,54,11.80
2009,09,22,06,55,11.80
2009,09,22,06,56,11.70
2009,09,22,06,57,11.70
2009,09,22,06,58,11.70
2009,09,22,06,59,11.70
2009,09,22,07,00,11.70
2009,09,22,07,01,11.70
2009,09,22,07,02,11.70
2009,09,22,07,03,11.70
2009,09,22,07,04,11.60
2009,09,22,07,05,11.60
2009,09,22,07,06,11.60
2009,09,22,07,07,11.60
2009,09,22,07,08,11.60
2009,09,22,07,09,11.60
2009,09,22,07,10,11.60
2009,09,22,07,11,11.60
2009,09,22,07,12,11.60
2009,09,22,07,13,11.60
2009,09,22,07,14,11.40
2009,09,22,07,15,11.40
2009,09,22,07,16,11.40
2009,09,22,07,17,11.40
2009,09,22,07,18,11.50
2009,09,22,07,19,11.60
2009,09,22,07,20,11.60
2009,09,22,07,21,11.60
2009,09,22,07,22,11.70
2009,09,22,07,23,11.70
2009,09,22,07,24,11.70
2009,09,22,07,25,11.80
2009,09,22,07,26,11.80
2009,09,22,07,27,11.80
2009,09,22,07,28,11.80
2009,09,22,07,29,11.80
2009,09,22,07,30,11.80
2009,09,22,07,31,11.80
2009,09,22,07,32,11.80
2009,09,22,07,33,11.80
2009,09,22,07,34,11.80
2009,09,22,07,35,11.90
2009,09,22,07,36,11.90
2009,09,22,07,37,11.90
2009,09,22,07,38,12.00
2009,09,22,07,39,12.00
2009,09,22,07,40,12.00
2009,09,22,07,41,12.00
2009,09,22,07,42,12.00
2009,09,22,07,43,12.00
2009,09,22,07,44,12.00
2009,09,22,07,45,12.00
2009,09,22,07,46,12.00
2009,09,22,07,47,12.10
2009,09,22,07,48,12.10
2009,09,22,07,49,12.10
2009,09,22,07,50,12.20
2009,09,22,07,51,12.20
2009,09,22,07,52,12.30
2009,09,22,07,53,12.30
2009,09,22,07,54,12.30
2009,09,22,07,55,12.50
2009,09,22,07,56,12.50
2009,09,22,07,57,12.60
2009,09,22,07,58,12.70
2009,09,22,07,59,12.70
2009,09,22,08,00,12.80
2009,09,22,08,01,13.00
2009,09,22,08,02,13.10
2009,09,22,08,03,13.20
2009,09,22,08,04,13.30
2009,09,22,08,05,13.50
2009,09,22,08,06,13.50
2009,09,22,08,07,13.60
2009,09,22,08,08,13.70
2009,09,22,08,09,13.80
2009,09,22,08,10,13.90
2009,09,22,08,11,13.90
2009,09,22,08,12,13.90
2009,09,22,08,13,14.00
2009,09,22,08,14,14.00
2009,09,22,08,15,14.00
2009,09,22,08,16,14.00
2009,09,22,08,17,14.10
2009,09,22,08,18,14.10
2009,09,22,08,19,14.20
2009,09,22,08,20,14.20
2009,09,22,08,21,14.20
2009,09,22,08,22,14.20
2009,09,22,08,23,14.20
2009,09,22,08,24,14.20
2009,09,22,08,25,14.30
2009,09,22,08,26,14.30
2009,09,22,08,27,14.30
2009,09,22,08,28,14.40
2009,09,22,08,29,14.40
2009,09,22,08,30,14.50
2009,09,22,08,31,14.60
2009,09,22,08,32,14.60
2009,09,22,08,33,14.70
2009,09,22,08,34,14.80
2009,09,22,08,35,14.90
2009,09,22,08,36,15.00
2009,09,22,08,37,15.10
2009,09,22,08,38,15.20
2009,09,22,08,39,15.30
2009,09,22,08,40,15.50
2009,09,22,08,41,15.60
2009,09,22,08,42,15.80
2009,09,22,08,43,16.00
2009,09,22,08,44,16.10
2009,09,22,08,45,16.30
2009,09,22,08,46,16.40
2009,09,22,08,47,16.70
2009,09,22,08,48,16.80
2009,09,22,08,49,16.90
2009,09,22,08,50,17.00
2009,09,22,08,51,17.20
2009,09,22,08,52,17.30
2009,09,22,08,53,17.30
2009,09,22,08,54,17.30
2009,09,22,08,55,17.30
2009,09,22,08,56,17.70
2009,09,22,08,57,17.80
2009,09,22,08,58,17.90
2009,09,22,08,59,18.00
2009,09,22,09,00,18.10
2009,09,22,09,01,18.30
2009,09,22,09,02,18.40
2009,09,22,09,03,18.50
2009,09,22,09,04,18.60
2009,09,22,09,05,18.60
2009,09,22,09,06,18.70
2009,09,22,09,07,18.80
2009,09,22,09,08,18.80
2009,09,22,09,09,18.90
2009,09,22,09,10,19.00
2009,09,22,09,11,19.10
2009,09,22,09,12,19.10
2009,09,22,09,13,19.20
2009,09,22,09,14,19.30
2009,09,22,09,15,19.30
2009,09,22,09,16,19.40
2009,09,22,09,17,19.50
2009,09,22,09,18,19.50
2009,09,22,09,19,19.60
2009,09,22,09,20,19.60
2009,09,22,09,21,19.70
2009,09,22,09,22,19.80
2009,09,22,09,23,19.90
2009,09,22,09,24,19.90
2009,09,22,09,25,20.00
2009,09,22,09,26,20.10
2009,09,22,09,27,20.10
2009,09,22,09,28,20.20
2009,09,22,09,29,20.20
2009,09,22,09,30,20.20
2009,09,22,09,31,20.20
2009,09,22,09,32,20.30
2009,09,22,09,33,20.40
2009,09,22,09,34,20.40
2009,09,22,09,35,20.50
2009,09,22,09,36,20.50
2009,09,22,09,37,20.50
2009,09,22,09,38,20.60
2009,09,22,09,39,20.60
2009,09,22,09,40,20.70
2009,09,22,09,41,20.70
2009,09,22,09,42,20.70
2009,09,22,09,43,20.70
2009,09,22,09,44,20.70
2009,09,22,09,45,20.80
2009,09,22,09,46,20.80
2009,09,22,09,47,20.80
2009,09,22,09,48,20.80
2009,09,22,09,49,20.90
2009,09,22,09,50,20.90
2009,09,22,09,51,21.00
2009,09,22,09,52,21.00
2009,09,22,09,53,21.00
2009,09,22,09,54,21.10
2009,09,22,09,55,21.20
2009,09,22,09,56,21.20
2009,09,22,09,57,21.20
2009,09,22,09,58,21.30
2009,09,22,09,59,21.30
2009,09,22,10,00,21.30
2009,09,22,10,01,21.30
2009,09,22,10,02,21.30
2009,09,22,10,03,21.30
2009,09,22,10,04,21.30
2009,09,22,10,05,21.30
2009,09,22,10,06,21.30
2009,09,22,10,07,21.30
2009,09,22,10,08,21.30
2009,09,22,10,09,21.40
2009,09,22,10,10,21.40
2009,09,22,10,11,21.40
2009,09,22,10,12,21.30
2009,09,22,10,13,21.30
2009,09,22,10,14,21.40
2009,09,22,10,15,21.40
2009,09,22,10,16,21.40
2009,09,22,10,17,21.40
2009,09,22,10,18,21.40
2009,09,22,10,19,21.40
2009,09,22,10,20,21.40
2009,09,22,10,21,21.50
2009,09,22,10,22,21.60
2009,09,22,10,23,21.60
2009,09,22,10,24,21.60
2009,09,22,10,25,21.60
2009,09,22,10,26,21.60
2009,09,22,10,27,21.60
2009,09,22,10,28,21.60
2009,09,22,10,29,21.60
2009,09,22,10,30,21.60
2009,09,22,10,31,21.60
2009,09,22,10,32,21.70
2009,09,22,10,33,21.70
2009,09,22,10,34,21.80
2009,09,22,10,35,21.80
2009,09,22,10,36,21.90
2009,09,22,10,37,21.90
2009,09,22,10,38,21.90
2009,09,22,10,39,21.90
2009,09,22,10,40,22.00
2009,09,22,10,41,22.00
2009,09,22,10,42,22.10
2009,09,22,10,43,22.10
2009,09,22,10,44,22.10
2009,09,22,10,45,22.00
2009,09,22,10,46,22.10
2009,09,22,10,47,22.10
2009,09,22,10,48,22.20
2009,09,22,10,49,22.20
2009,09,22,10,50,22.30
2009,09,22,10,51,22.30
2009,09,22,10,52,22.40
2009,09,22,10,53,22.40
2009,09,22,10,54,22.50
2009,09,22,10,55,22.50
2009,09,22,10,56,22.60
2009,09,22,10,57,22.60
2009,09,22,10,58,22.60
2009,09,22,10,59,22.50
2009,09,22,11,00,22.50
2009,09,22,11,01,22.40
2009,09,22,11,02,22.40
2009,09,22,11,03,22.30
2009,09,22,11,04,22.20
2009,09,22,11,05,22.10
2009,09,22,11,06,22.10
2009,09,22,11,07,22.10
2009,09,22,11,08,22.10
2009,09,22,11,09,22.10
2009,09,22,11,10,22.20
2009,09,22,11,11,22.20
2009,09,22,11,12,22.20
2009,09,22,11,13,22.20
2009,09,22,11,14,22.20
2009,09,22,11,15,22.20
2009,09,22,11,16,22.30
2009,09,22,11,17,22.30
2009,09,22,11,18,22.40
2009,09,22,11,19,22.40
2009,09,22,11,20,22.40
2009,09,22,11,21,22.50
2009,09,22,11,22,22.50
2009,09,22,11,23,22.60
2009,09,22,11,24,22.60
2009,09,22,11,25,22.70
2009,09,22,11,26,22.70
2009,09,22,11,27,22.70
2009,09,22,11,28,22.80
2009,09,22,11,29,22.80
2009,09,22,11,30,22.80
2009,09,22,11,31,22.70
2009,09,22,11,32,22.70
2009,09,22,11,33,22.70
2009,09,22,11,34,22.70
2009,09,22,11,35,22.70
2009,09,22,11,36,22.70
2009,09,22,11,37,22.70
2009,09,22,11,38,22.70
2009,09,22,11,39,22.80
2009,09,22,11,40,22.90
2009,09,22,11,41,22.90
2009,09,22,11,42,23.00
2009,09,22,11,43,23.10
2009,09,22,11,44,23.20
2009,09,22,11,45,23.20
2009,09,22,11,46,23.30
2009,09,22,11,47,23.30
2009,09,22,11,48,23.30
2009,09,22,11,49,23.30
2009,09,22,11,50,23.30
2009,09,22,11,51,23.30
2009,09,22,11,52,23.30
2009,09,22,11,53,23.30
2009,09,22,11,54,23.30
2009,09,22,11,55,23.40
2009,09,22,11,56,23.60
2009,09,22,11,57,23.60
2009,09,22,11,58,23.70
2009,09,22,11,59,23.70
2009,09,22,12,00,23.80
2009,09,22,12,01,23.90
2009,09,22,12,02,23.90
2009,09,22,12,03,23.90
2009,09,22,12,04,23.90
2009,09,22,12,05,23.80
2009,09,22,12,06,23.80
2009,09,22,12,07,23.70
2009,09,22,12,08,23.70
2009,09,22,12,09,23.70
2009,09,22,12,10,23.80
2009,09,22,12,11,23.80
2009,09,22,12,12,23.90
2009,09,22,12,13,24.00
2009,09,22,12,14,24.10
2009,09,22,12,15,24.10
2009,09,22,12,16,24.20
2009,09,22,12,17,24.20
2009,09,22,12,18,24.30
2009,09,22,12,19,24.40
2009,09,22,12,20,24.40
2009,09,22,12,21,24.40
2009,09,22,12,22,24.50
2009,09,22,12,23,24.50
2009,09,22,12,24,24.60
2009,09,22,12,25,24.70
2009,09,22,12,26,24.80
2009,09,22,12,27,24.90
2009,09,22,12,28,25.00
2009,09,22,12,29,25.00
2009,09,22,12,30,25.10
2009,09,22,12,31,25.10
2009,09,22,12,32,25.00
2009,09,22,12,33,24.90
2009,09,22,12,34,24.80
2009,09,22,12,35,24.70
2009,09,22,12,36,24.60
2009,09,22,12,37,24.50
2009,09,22,12,38,24.50
2009,09,22,12,39,24.60
2009,09,22,12,40,24.60
2009,09,22,12,41,24.60
2009,09,22,12,42,24.60
2009,09,22,12,43,24.60
2009,09,22,12,44,24.50
2009,09,22,12,45,24.50
2009,09,22,12,46,24.40
2009,09,22,12,47,24.30
2009,09,22,12,48,24.30
2009,09,22,12,49,24.30
2009,09,22,12,50,24.30
2009,09,22,12,51,24.40
2009,09,22,12,52,24.40
2009,09,22,12,53,24.40
2009,09,22,12,54,24.40
2009,09,22,12,55,24.40
2009,09,22,12,56,24.40
2009,09,22,12,57,24.40
2009,09,22,12,58,24.40
2009,09,22,12,59,24.50
2009,09,22,13,00,24.50
2009,09,22,13,01,24.50
2009,09,22,13,02,24.50
2009,09,22,13,03,24.50
2009,09,22,13,04,24.50
2009,09,22,13,05,24.60
2009,09,22,13,06,24.70
2009,09,22,13,07,24.70
2009,09,22,13,08,24.70
2009,09,22,13,09,24.80
2009,09,22,13,10,24.80
2009,09,22,13,11,24.90
2009,09,22,13,12,24.90
2009,09,22,13,13,25.00
2009,09,22,13,14,24.70
2009,09,22,13,15,24.10
2009,09,22,13,16,22.90
2009,09,22,13,17,21.50
2009,09,22,13,18,20.50
2009,09,22,13,19,19.90
2009,09,22,13,20,19.30
2009,09,22,13,21,19.00
2009,09,22,13,22,18.90
2009,09,22,13,23,18.90
2009,09,22,13,24,18.80
2009,09,22,13,25,18.70
2009,09,22,13,26,18.70
2009,09,22,13,27,18.70
2009,09,22,13,28,18.70
2009,09,22,13,29,18.60
2009,09,22,13,30,18.50
2009,09,22,13,31,18.40
2009,09,22,13,32,18.40
2009,09,22,13,33,18.50
2009,09,22,13,34,18.50
2009,09,22,13,35,18.60
2009,09,22,13,36,18.70
2009,09,22,13,37,18.90
2009,09,22,13,38,19.20
2009,09,22,13,39,19.50
2009,09,22,13,40,19.90
2009,09,22,13,41,20.10
2009,09,22,13,42,20.20
2009,09,22,13,43,20.30
2009,09,22,13,44,20.30
2009,09,22,13,45,20.20
2009,09,22,13,46,20.20
2009,09,22,13,47,20.10
2009,09,22,13,48,19.90
2009,09,22,13,49,19.90
2009,09,22,13,50,19.90
2009,09,22,13,51,19.80
2009,09,22,13,52,19.70
2009,09,22,13,53,19.60
2009,09,22,13,54,19.60
2009,09,22,13,55,19.50
2009,09,22,13,56,19.50
2009,09,22,13,57,19.50
2009,09,22,13,58,19.50
2009,09,22,13,59,19.50
2009,09,22,14,00,19.50
2009,09,22,14,01,19.50
2009,09,22,14,02,19.40
2009,09,22,14,03,19.30
2009,09,22,14,04,19.40
2009,09,22,14,05,19.40
2009,09,22,14,06,19.40
2009,09,22,14,07,19.50
2009,09,22,14,08,19.60
2009,09,22,14,09,19.70
2009,09,22,14,10,19.80
2009,09,22,14,11,19.90
2009,09,22,14,12,19.90
2009,09,22,14,13,20.00
2009,09,22,14,14,20.10
2009,09,22,14,15,20.20
2009,09,22,14,16,20.10
2009,09,22,14,17,20.10
2009,09,22,14,18,20.10
2009,09,22,14,19,20.00
2009,09,22,14,20,19.90
2009,09,22,14,21,20.00
2009,09,22,14,22,20.10
2009,09,22,14,23,20.10
2009,09,22,14,24,20.00
2009,09,22,14,25,19.90
2009,09,22,14,26,19.90
2009,09,22,14,27,20.10
2009,09,22,14,28,20.20
2009,09,22,14,29,20.20
2009,09,22,14,30,20.30
2009,09,22,14,31,20.40
2009,09,22,14,32,20.60
2009,09,22,14,33,20.70
2009,09,22,14,34,20.90
2009,09,22,14,35,21.00
2009,09,22,14,36,21.20
2009,09,22,14,37,21.40
2009,09,22,14,38,21.60
2009,09,22,14,39,21.70
2009,09,22,14,40,22.00
2009,09,22,14,41,22.20
2009,09,22,14,42,22.30
2009,09,22,14,43,22.50
2009,09,22,14,44,22.70
2009,09,22,14,45,22.90
2009,09,22,14,46,23.10
2009,09,22,14,47,23.30
2009,09,22,14,48,23.30
2009,09,22,14,49,23.30
2009,09,22,14,50,23.40
2009,09,22,14,51,23.40
2009,09,22,14,52,23.50
2009,09,22,14,53,23.60
2009,09,22,14,54,23.70
2009,09,22,14,55,23.70
2009,09,22,14,56,23.70
2009,09,22,14,57,23.60
2009,09,22,14,58,23.50
2009,09,22,14,59,23.40
2009,09,22,15,00,23.50
2009,09,22,15,01,23.60
2009,09,22,15,02,23.70
2009,09,22,15,03,23.80
2009,09,22,15,04,24.00
2009,09,22,15,05,24.10
2009,09,22,15,06,24.40
2009,09,22,15,07,24.60
2009,09,22,15,08,24.80
2009,09,22,15,09,25.00
2009,09,22,15,10,25.20
2009,09,22,15,11,25.30
2009,09,22,15,12,25.40
2009,09,22,15,13,25.50
2009,09,22,15,14,25.60
2009,09,22,15,15,25.60
2009,09,22,15,16,25.70
2009,09,22,15,17,25.80
2009,09,22,15,18,25.90
2009,09,22,15,19,26.00
2009,09,22,15,20,26.00
2009,09,22,15,21,26.00
2009,09,22,15,22,26.00
2009,09,22,15,23,26.00
2009,09,22,15,24,26.00
2009,09,22,15,25,26.00
2009,09,22,15,26,26.00
2009,09,22,15,27,26.00
2009,09,22,15,28,26.00
2009,09,22,15,29,26.00
2009,09,22,15,30,26.00
2009,09,22,15,31,26.10
2009,09,22,15,32,26.00
2009,09,22,15,33,25.60
2009,09,22,15,34,25.20
2009,09,22,15,35,24.80
2009,09,22,15,36,24.50
2009,09,22,15,37,24.30
2009,09,22,15,38,24.10
2009,09,22,15,39,24.10
2009,09,22,15,40,24.10
2009,09,22,15,41,24.10
2009,09,22,15,42,24.20
2009,09,22,15,43,24.40
2009,09,22,15,44,24.50
2009,09,22,15,45,24.70
2009,09,22,15,46,24.90
2009,09,22,15,47,25.10
2009,09,22,15,48,25.20
2009,09,22,15,49,25.30
2009,09,22,15,50,25.40
2009,09,22,15,51,25.50
2009,09,22,15,52,25.60
2009,09,22,15,53,25.80
2009,09,22,15,54,25.90
2009,09,22,15,55,26.00
2009,09,22,15,56,26.10
2009,09,22,15,57,26.20
2009,09,22,15,58,26.20
2009,09,22,15,59,26.10
2009,09,22,16,00,26.20
2009,09,22,16,01,26.20
2009,09,22,16,02,26.30
2009,09,22,16,03,26.40
2009,09,22,16,04,26.50
2009,09,22,16,05,26.60
2009,09,22,16,06,26.60
2009,09,22,16,07,26.60
2009,09,22,16,08,26.60
2009,09,22,16,09,26.60
2009,09,22,16,10,26.60
2009,09,22,16,11,26.60
2009,09,22,16,12,26.60
2009,09,22,16,13,26.70
2009,09,22,16,14,26.60
2009,09,22,16,15,26.50
2009,09,22,16,16,26.30
2009,09,22,16,17,26.00
2009,09,22,16,18,25.80
2009,09,22,16,19,25.60
2009,09,22,16,20,25.40
2009,09,22,16,21,25.20
2009,09,22,16,22,24.90
2009,09,22,16,23,24.60
2009,09,22,16,24,24.30
2009,09,22,16,25,24.00
2009,09,22,16,26,23.80
2009,09,22,16,27,23.70
2009,09,22,16,28,23.60
2009,09,22,16,29,23.60
2009,09,22,16,30,23.70
2009,09,22,16,31,23.60
2009,09,22,16,32,23.40
2009,09,22,16,33,23.30
2009,09,22,16,34,23.10
2009,09,22,16,35,23.00
2009,09,22,16,36,22.90
2009,09,22,16,37,22.90
2009,09,22,16,38,22.90
2009,09,22,16,39,22.80
2009,09,22,16,40,22.70
2009,09,22,16,41,22.70
2009,09,22,16,42,22.60
2009,09,22,16,43,22.70
2009,09,22,16,44,22.70
2009,09,22,16,45,22.70
2009,09,22,16,46,22.70
2009,09,22,16,47,22.70
2009,09,22,16,48,22.60
2009,09,22,16,49,22.60
2009,09,22,16,50,22.70
2009,09,22,16,51,22.60
2009,09,22,16,52,22.60
2009,09,22,16,53,22.50
2009,09,22,16,54,22.60
2009,09,22,16,55,22.60
2009,09,22,16,56,22.50
2009,09,22,16,57,22.50
2009,09,22,16,58,22.50
2009,09,22,16,59,22.50
2009,09,22,17,00,22.60
2009,09,22,17,01,22.60
2009,09,22,17,02,22.60
2009,09,22,17,03,22.50
2009,09,22,17,04,22.50
2009,09,22,17,05,22.50
2009,09,22,17,06,22.50
2009,09,22,17,07,22.50
2009,09,22,17,08,22.50
2009,09,22,17,09,22.40
2009,09,22,17,10,22.40
2009,09,22,17,11,22.40
2009,09,22,17,12,22.40
2009,09,22,17,13,22.40
2009,09,22,17,14,22.30
2009,09,22,17,15,22.30
2009,09,22,17,16,22.20
2009,09,22,17,17,22.10
2009,09,22,17,18,21.90
2009,09,22,17,19,21.80